Wind_Speed
25 25 24 24 24 24 25 25 24 24 24 25 25 26 26 26 26 25 25 25 24 25 25 25 24 24 24 25 25 24 24 24 23 22 22 23 23 23
26 25 25 26 26 25 26 26 27 27 26 27 27 27 27 27 27 27 27 26 25 25 25 24 24 24 24 24 25 25 25 24 23 23 22 23 23 23
26 26 26 27 27 27 27 27 28 28 28 28 28 28 28 29 28 27 27 27 26 26 25 25 24 24 24 24 24 24 24 24 24 24 25 25 23 23
27 28 27 28 29 29 29 29 29 29 29 30 29 29 28 28 28 29 29 28 27 26 26 26 25 25 24 24 24 24 24 24 24 25 26 26 26 25
29 29 29 29 29 29 30 30 31 31 31 31 29 29 28 29 29 29 29 28 27 27 27 27 26 25 25 24 23 23 24 24 24 24 25 24 24 24
30 30 30 30 30 30 31 32 31 31 31 30 29 30 29 29 29 28 28 28 27 26 26 26 26 24 24 24 25 24 24 24 24 24 24 24 23 23
31 31 31 31 31 31 31 32 31 31 31 30 29 29 29 29 28 28 27 27 27 27 26 26 25 24 23 23 24 24 24 24 23 23 23 23 23 24
32 31 31 32 31 31 32 32 32 32 31 31 30 29 29 29 28 27 28 27 27 27 27 26 25 24 24 23 23 24 24 24 24 23 23 23 23 23
34 33 32 32 33 32 32 32 32 31 31 30 30 30 29 29 28 28 28 28 27 27 26 26 25 25 24 23 23 24 24 23 22 22 23 22 23 23
34 34 33 34 34 34 33 33 32 32 31 31 30 30 29 29 29 28 28 27 25 25 25 25 24 24 23 23 23 23 23 23 22 22 23 22 22 22
35 35 35 35 36 35 33 33 33 32 31 31 30 30 30 29 28 27 27 26 26 25 25 24 23 23 23 23 23 23 23 23 22 22 23 23 22 22
35 35 35 35 35 35 33 33 33 32 31 31 30 29 29 28 27 27 27 27 26 25 25 25 24 24 24 23 23 23 23 23 22 22 22 23 22 22
36 36 35 34 34 33 33 33 32 31 31 30 30 30 29 28 27 28 28 27 27 26 25 25 25 25 25 25 24 24 23 23 23 23 23 23 22 22
36 35 34 34 33 32 32 32 31 31 31 30 29 29 28 28 28 28 29 29 28 27 26 26 26 26 25 25 25 24 24 23 23 23 22 21 21 22
35 35 33 33 32 31 30 30 30 30 30 29 28 28 28 28 29 29 29 29 28 27 27 27 26 26 26 26 25 25 24 23 23 23 22 21 22 22
33 32 31 31 30 30 30 29 29 28 28 28 27 27 27 27 28 28 28 28 28 27 27 27 27 26 25 25 25 24 24 24 24 23 23 23 22 22
31 30 29 30 30 29 28 28 28 28 28 27 27 26 27 27 27 27 27 27 26 26 26 26 26 26 25 25 25 24 24 24 24 24 24 23 23 23
30 30 29 29 29 28 28 27 27 27 27 27 27 27 27 28 28 27 26 26 26 26 26 25 24 24 24 24 24 24 24 24 23 23 23 22 22 23
30 29 28 28 28 27 27 26 26 26 27 27 27 27 27 27 27 27 25 25 25 25 24 24 24 23 23 23 23 23 23 23 23 23 22 22 22 21
29 28 27 27 26 25 25 26 26 26 26 26 26 26 25 25 25 25 25 25 25 24 24 24 24 23 23 23 23 23 23 23 24 23 22 21 21 21
27 27 26 25 24 24 24 24 24 24 24 24 25 25 25 24 23 24 24 24 24 24 24 24 24 24 24 24 24 24 23 22 22 22 22 21 21 21
26 25 25 24 23 23 23 22 22 22 23 23 23 23 23 23 22 23 23 23 23 23 24 23 23 24 24 24 24 24 23 23 22 21 22 22 22 22
23 23 23 23 22 22 21 21 21 21 20 20 21 21 21 21 21 22 22 23 23 23 23 23 24 24 24 24 24 24 23 23 22 21 21 22 22 22
Wind_Direction
299 300 299 297 296 295 294 294 294 294 294 293 292 292 290 289 290 293 293 293 292 291 287 286 287 284 282 281 279 278 278 277 276 275 276 276 273 272
299 296 296 295 294 294 293 292 292 293 295 294 292 291 290 288 289 291 292 291 292 292 291 290 288 285 283 282 278 277 276 275 275 273 275 277 276 272
299 296 293 293 294 293 293 292 292 292 295 293 292 291 289 288 288 287 292 290 290 291 290 289 288 286 283 281 279 278 275 275 275 273 273 274 276 275
299 297 296 292 292 292 291 291 290 291 292 292 290 291 289 288 287 288 289 291 291 290 289 288 288 287 284 280 278 279 278 277 276 275 275 275 275 273
297 296 296 294 292 292 291 290 288 289 290 291 290 290 288 287 287 289 290 290 289 288 288 287 289 288 285 282 280 280 279 279 277 276 276 276 275 275
297 295 295 295 292 291 291 290 289 290 291 291 291 291 289 287 287 289 289 289 289 289 290 289 289 288 286 284 283 280 280 278 277 275 274 274 274 274
296 295 294 293 293 292 293 291 291 291 290 291 291 291 290 288 289 288 288 289 289 288 289 290 289 287 284 282 282 281 281 279 277 275 273 271 270 271
296 295 295 293 293 293 294 293 290 290 290 290 289 289 290 289 289 287 286 287 287 287 287 287 287 286 285 285 284 282 283 282 281 277 273 272 270 272
296 294 294 294 294 293 292 293 291 290 290 290 289 288 288 288 287 287 285 284 284 285 285 285 284 285 285 285 285 284 284 283 281 279 278 278 278 277
296 295 293 292 291 292 292 292 290 289 290 290 289 289 287 285 284 284 284 283 282 282 283 282 281 282 282 283 284 283 282 281 278 278 279 277 277 277
297 296 293 290 290 290 289 289 289 288 289 288 288 288 287 285 282 282 281 281 281 282 281 281 280 281 281 283 282 282 281 279 277 276 277 277 276 275
296 295 293 292 290 289 289 288 286 285 285 285 286 286 285 283 282 282 282 280 280 281 280 281 280 280 279 281 283 284 282 280 278 276 277 277 276 275
297 296 295 293 291 289 288 287 286 286 285 285 285 283 283 281 280 281 280 280 279 280 280 279 279 279 279 281 282 282 280 280 278 277 279 278 277 276
298 297 294 292 290 288 287 286 286 286 286 286 285 282 280 279 278 278 279 281 279 278 277 278 278 278 279 279 280 280 279 278 278 277 276 274 275 275
298 296 295 293 291 288 287 286 286 285 285 285 284 283 281 280 280 278 278 278 279 279 278 277 276 276 277 279 278 278 277 276 276 276 275 274 275 274
296 295 294 293 292 290 289 287 286 286 285 284 283 282 280 280 281 280 277 276 275 276 276 275 275 275 276 278 278 276 275 276 277 278 275 275 273 271
297 297 295 294 293 291 289 288 287 285 285 284 283 281 280 279 279 279 277 275 275 274 274 274 275 275 276 277 277 278 277 276 277 278 276 272 270 267
299 298 297 295 293 291 290 289 288 286 284 284 283 282 281 280 278 276 275 275 275 275 274 275 276 276 277 278 277 278 277 277 276 276 276 272 268 266
300 299 298 295 295 292 290 289 287 286 284 283 282 282 281 281 279 277 274 274 275 276 276 276 276 276 278 278 277 276 276 277 276 276 276 273 270 265
301 300 299 297 295 293 290 288 287 286 284 283 282 283 282 281 279 277 275 274 274 274 274 275 277 277 277 278 276 274 275 277 277 274 273 272 268 264
303 302 301 299 296 293 290 289 288 285 283 283 282 282 281 280 278 277 277 276 274 273 274 275 275 275 277 278 275 274 274 275 275 272 270 268 267 263
305 305 304 302 299 296 293 290 289 289 287 284 282 282 281 280 279 278 277 277 276 275 276 275 275 275 276 277 275 273 273 272 272 272 268 266 265 261
306 306 305 303 302 299 297 294 290 291 290 285 283 282 282 281 281 280 279 279 278 277 275 274 275 276 276 276 273 272 271 270 271 271 266 263 263 260
Height
5840 5838 5837 5835 5834 5832 5830 5829 5828 5826 5825 5823 5822 5820 5817 5816 5815 5814 5812 5810 5809 5808 5806 5805 5803 5802 5801 5800 5800 5799 5798 5798 5798 5797 5797 5797 5796 5796
5835 5833 5831 5829 5827 5826 5824 5822 5820 5819 5817 5816 5814 5813 5811 5810 5808 5807 5806 5804 5802 5801 5800 5798 5797 5796 5794 5793 5793 5792 5791 5791 5791 5791 5790 5790 5789 5789
5828 5826 5824 5823 5821 5819 5817 5815 5813 5811 5810 5809 5807 5805 5804 5802 5801 5800 5799 5797 5796 5794 5793 5791 5790 5789 5788 5787 5786 5785 5785 5784 5784 5784 5783 5783 5782 5782
5822 5819 5818 5815 5814 5812 5810 5808 5806 5804 5802 5801 5799 5798 5796 5795 5794 5793 5791 5790 5789 5787 5786 5784 5783 5782 5781 5780 5779 5779 5778 5778 5777 5777 5777 5776 5776 5776
5815 5813 5810 5808 5806 5804 5802 5800 5798 5796 5795 5793 5791 5790 5789 5787 5786 5785 5783 5782 5781 5780 5779 5777 5776 5775 5774 5773 5772 5772 5772 5771 5771 5770 5770 5770 5769 5769
5807 5805 5803 5801 5798 5796 5794 5792 5790 5788 5787 5785 5784 5782 5781 5780 5779 5778 5776 5775 5774 5773 5772 5770 5770 5769 5767 5766 5766 5766 5765 5764 5764 5764 5764 5763 5763 5763
5800 5797 5795 5793 5790 5788 5786 5784 5782 5780 5779 5777 5776 5775 5773 5772 5771 5770 5769 5768 5767 5765 5764 5763 5762 5761 5760 5760 5759 5759 5758 5758 5757 5757 5757 5757 5757 5757
5792 5790 5787 5785 5782 5780 5778 5776 5774 5772 5770 5769 5768 5766 5765 5764 5763 5762 5761 5760 5759 5758 5756 5756 5755 5754 5753 5752 5752 5752 5751 5751 5751 5750 5750 5749 5749 5749
5784 5781 5778 5776 5773 5771 5769 5768 5766 5764 5763 5761 5759 5758 5757 5755 5754 5753 5752 5751 5751 5750 5749 5748 5748 5747 5746 5745 5745 5745 5744 5744 5743 5743 5743 5742 5742 5742
5775 5772 5770 5767 5764 5763 5761 5759 5757 5755 5754 5752 5751 5750 5748 5747 5746 5745 5744 5743 5743 5742 5741 5741 5740 5740 5739 5739 5738 5738 5737 5737 5736 5736 5736 5736 5735 5735
5765 5763 5760 5758 5755 5753 5752 5750 5748 5747 5745 5744 5742 5741 5740 5739 5737 5737 5736 5735 5735 5735 5734 5733 5733 5733 5732 5732 5731 5730 5730 5729 5729 5730 5729 5729 5729 5728
5756 5753 5750 5748 5746 5743 5742 5740 5739 5738 5736 5735 5734 5733 5731 5730 5729 5729 5728 5727 5727 5727 5726 5726 5725 5725 5725 5725 5724 5723 5723 5722 5722 5722 5722 5722 5722 5721
5745 5742 5740 5737 5735 5734 5732 5730 5729 5728 5727 5726 5725 5724 5723 5722 5722 5721 5720 5719 5719 5719 5718 5718 5717 5717 5717 5717 5717 5716 5716 5715 5715 5715 5715 5715 5714 5714
5735 5732 5729 5727 5725 5724 5722 5721 5720 5719 5718 5717 5716 5715 5714 5713 5713 5712 5712 5711 5710 5710 5709 5709 5709 5709 5709 5709 5709 5709 5708 5708 5708 5708 5708 5708 5708 5708
5725 5722 5719 5717 5715 5714 5712 5711 5710 5709 5708 5707 5707 5706 5705 5704 5704 5703 5703 5702 5702 5701 5701 5701 5701 5701 5701 5701 5701 5701 5701 5701 5700 5700 5700 5701 5701 5701
5715 5713 5710 5708 5706 5704 5703 5702 5701 5700 5699 5698 5698 5697 5696 5696 5695 5694 5694 5693 5693 5693 5693 5693 5693 5693 5693 5693 5693 5693 5693 5693 5693 5693 5693 5693 5693 5693
5706 5704 5702 5699 5697 5696 5694 5693 5692 5691 5690 5690 5689 5689 5688 5687 5687 5686 5685 5685 5685 5685 5685 5685 5685 5685 5684 5685 5685 5685 5685 5685 5685 5685 5685 5686 5686 5686
5698 5695 5693 5691 5689 5687 5685 5684 5683 5682 5681 5681 5680 5680 5679 5678 5678 5677 5676 5676 5676 5676 5676 5676 5676 5677 5677 5676 5677 5676 5677 5677 5677 5677 5677 5678 5679 5679
5689 5687 5684 5682 5680 5678 5677 5676 5674 5673 5673 5672 5671 5671 5670 5669 5669 5669 5668 5668 5668 5668 5668 5668 5668 5669 5669 5669 5669 5669 5669 5669 5669 5670 5670 5670 5671 5671
5681 5678 5676 5674 5672 5670 5668 5667 5666 5665 5664 5663 5663 5662 5662 5661 5661 5660 5660 5660 5660 5660 5661 5661 5661 5661 5661 5662 5662 5662 5662 5661 5662 5662 5662 5662 5663 5664
5674 5671 5668 5666 5664 5663 5661 5659 5658 5657 5656 5655 5655 5654 5654 5653 5653 5653 5652 5652 5652 5652 5653 5653 5653 5653 5653 5654 5654 5655 5655 5654 5654 5654 5654 5655 5656 5657
5666 5664 5661 5659 5657 5655 5654 5652 5651 5649 5648 5648 5647 5646 5646 5645 5645 5645 5645 5645 5644 5645 5645 5645 5645 5645 5645 5646 5646 5646 5647 5647 5646 5646 5646 5647 5648 5649
5660 5658 5655 5653 5651 5649 5647 5645 5644 5643 5641 5640 5640 5639 5639 5638 5638 5637 5637 5637 5637 5637 5636 5636 5637 5637 5637 5638 5638 5638 5638 5639 5639 5639 5639 5639 5640 5641